Wetbulb
62.77 63.29 62.85 62.11 60.86 60.67 60.86 60.77 60.44 60.06 59.55 59.54 59.58 59.80 60.47 60.51 60.29 51.66 47.95 55.67 59.48 65.11 64.25 53.96 51.02 50.02 49.12 47.31 48.16 47.31 38.53 34.02 36.03 37.91 38.66 43.07 41.50 44.68 46.55 43.79 44.45 45.53 44.17 45.46 47.17
62.75 62.71 62.72 61.91 61.07 60.36 60.45 60.58 60.25 59.56 59.14 58.70 59.01 59.35 60.07 59.48 53.61 48.95 56.69 63.09 64.05 65.22 53.31 48.71 46.38 47.63 44.55 44.58 44.43 41.68 35.99 37.40 40.88 40.93 39.69 42.56 42.29 41.63 41.50 42.75 42.50 42.97 46.04 46.72 45.96
62.45 62.11 62.29 61.65 60.66 59.86 60.05 60.34 59.64 59.32 58.48 58.36 58.46 59.09 59.37 57.72 48.04 46.82 63.41 65.31 65.48 64.32 54.05 50.82 49.21 47.26 43.42 42.98 42.85 41.75 37.36 41.83 43.16 44.33 44.20 42.37 41.09 43.90 40.93 39.51 40.63 39.86 42.72 44.71 43.94
61.80 61.54 61.04 60.99 60.36 59.18 59.61 59.59 59.42 58.53 58.45 58.49 58.73 59.12 58.32 53.72 38.45 47.49 63.59 64.82 64.97 57.61 52.50 49.58 46.65 43.34 40.44 39.66 42.79 39.13 43.52 44.40 44.67 45.39 44.55 41.97 44.14 41.12 41.79 41.24 44.05 44.11 45.13 44.23 42.64
61.03 60.66 60.24 59.85 59.70 58.89 59.42 59.50 59.26 58.68 58.89 58.87 59.13 58.90 54.65 44.27 43.35 51.49 61.63 59.03 55.63 53.90 49.99 47.42 44.03 42.13 39.02 39.27 41.28 39.38 41.37 44.84 45.22 45.03 44.15 45.00 42.13 41.67 41.54 43.74 45.00 46.00 44.83 42.99 41.87
60.51 59.96 59.45 59.15 59.40 58.82 59.36 58.69 59.42 59.31 59.16 59.44 59.54 57.74 50.25 39.50 49.77 51.57 51.42 53.17 53.51 52.37 48.61 48.10 45.26 44.99 41.10 40.24 39.09 40.00 42.46 43.18 44.65 44.63 44.38 42.59 40.79 41.25 41.92 43.71 44.32 44.39 42.92 42.35 41.17
59.57 59.22 58.75 58.66 59.10 58.39 58.06 58.27 57.92 57.87 58.17 58.98 59.14 54.42 45.76 43.82 50.13 50.42 51.53 50.87 52.65 52.20 48.89 48.67 47.08 44.47 42.58 39.95 42.97 41.94 38.58 40.48 42.34 43.49 42.20 42.23 37.54 38.39 41.79 43.11 43.03 43.40 43.22 41.61 41.49
60.63 59.85 58.33 58.09 58.47 58.59 57.50 57.02 56.51 55.72 56.93 58.17 58.40 49.95 42.15 51.61 49.31 50.53 50.54 50.84 51.94 51.72 51.49 49.41 48.73 44.94 42.21 42.13 41.75 37.86 36.47 31.22 40.01 42.59 42.21 40.22 32.01 38.21 40.89 40.98 40.51 42.17 42.51 41.39 40.29
59.62 58.96 58.47 57.92 58.55 58.54 57.50 56.86 56.28 56.18 56.66 57.48 49.72 45.85 40.88 54.20 49.08 49.78 48.70 48.76 49.84 50.48 49.66 49.84 46.97 41.71 41.84 35.59 32.27 32.72 27.28 30.40 35.21 42.55 40.53 38.24 33.11 39.20 40.81 40.41 39.41 40.64 40.03 39.68 39.16
59.14 58.55 58.37 58.57 58.54 58.01 57.58 57.13 56.41 54.52 54.56 52.78 49.14 44.13 46.27 45.24 48.93 49.78 48.83 49.30 47.36 46.77 47.22 45.55 41.32 36.16 34.47 31.79 24.37 27.22 27.65 30.27 31.01 37.37 38.21 35.89 35.18 38.53 39.48 39.31 38.24 38.67 38.09 37.47 37.79
58.64 58.17 58.07 58.26 58.15 57.83 54.57 51.71 48.40 44.66 47.03 42.78 43.48 44.01 46.22 49.01 50.44 47.83 48.98 47.24 47.25 43.90 37.17 40.14 33.93 29.50 31.95 33.35 34.13 33.35 30.42 29.71 33.49 37.92 34.65 32.76 33.65 36.33 38.14 37.67 35.97 36.60 36.04 35.21 36.76
58.06 57.71 57.73 57.88 57.68 57.25 52.43 46.58 46.00 46.26 40.70 46.77 46.90 46.17 47.69 47.94 44.41 46.69 48.33 43.00 42.02 36.83 39.09 36.65 30.32 35.36 38.51 38.09 35.23 33.77 30.69 29.17 34.01 37.52 35.06 32.55 33.33 35.90 36.67 35.71 36.30 36.13 35.82 34.71 35.29
57.58 57.31 57.46 56.95 56.71 52.37 48.03 47.17 51.01 49.99 41.31 44.10 46.29 45.61 45.48 47.26 43.01 43.26 44.67 42.70 39.01 36.96 35.98 33.23 35.27 39.56 37.98 35.42 33.47 31.53 28.91 29.05 30.61 34.36 34.75 32.44 30.10 32.93 35.73 35.40 36.97 36.83 37.31 35.94 34.56
57.08 57.17 57.22 55.89 52.59 50.86 47.56 51.30 51.39 50.13 38.14 41.64 44.13 46.32 47.18 46.41 42.59 46.78 45.61 42.78 40.32 35.74 36.35 35.12 38.52 37.83 36.41 34.60 32.83 28.64 34.82 34.11 33.25 29.57 24.28 32.55 23.53 29.13 32.78 33.41 33.60 33.82 33.28 34.03 33.46
56.90 57.07 56.85 55.98 50.69 47.94 49.64 51.46 50.65 48.64 28.94 43.71 44.41 49.71 47.35 42.89 42.98 45.59 45.40 42.97 36.56 37.20 36.76 34.57 34.65 34.37 34.77 34.27 34.51 32.58 35.98 33.46 32.96 28.83 27.23 28.41 24.90 28.47 32.91 32.72 33.89 32.06 31.98 33.22 32.67
56.88 56.63 55.86 52.12 50.75 49.47 51.15 50.60 49.09 40.49 25.98 40.39 44.81 43.10 42.26 43.76 43.16 45.87 43.52 43.46 41.40 38.36 37.06 35.88 38.47 36.68 34.76 36.94 36.21 37.39 34.32 34.51 31.91 29.29 23.92 28.03 26.02 26.34 29.78 33.24 33.28 31.94 31.71 33.17 31.91
56.79 55.92 54.32 52.24 47.69 50.45 50.54 48.33 39.95 31.88 42.11 39.36 39.37 41.91 39.65 39.22 41.19 42.25 38.14 35.17 32.90 31.10 30.89 36.83 35.27 36.03 37.11 33.77 36.10 34.21 29.16 23.85 23.25 23.94 23.92 28.80 25.58 28.49 33.68 34.00 34.30 33.86 31.50 31.64 31.38
55.88 54.80 54.72 52.17 51.50 49.71 48.84 44.01 33.15 38.61 38.04 41.65 40.98 40.60 37.32 38.93 39.00 40.14 37.14 32.81 35.51 34.07 31.15 28.24 28.36 34.21 36.42 33.19 29.72 29.93 28.38 23.20 20.94 20.72 22.11 28.14 23.30 30.02 33.86 33.44 33.85 35.36 33.39 32.17 30.76
54.50 53.89 52.53 52.03 50.73 49.30 46.43 35.33 35.25 37.22 40.54 39.23 40.37 36.40 36.74 39.01 37.11 38.72 32.48 32.52 32.94 33.78 30.78 28.34 30.59 35.20 35.71 35.42 34.48 31.03 26.69 30.62 25.23 24.83 21.55 24.33 29.90 31.61 33.10 32.81 32.94 33.04 32.89 31.55 31.03
48.65 51.26 52.27 51.77 50.04 49.17 40.46 38.08 36.61 40.61 41.08 40.05 35.18 36.39 33.07 35.67 36.01 36.08 33.94 34.38 35.34 36.17 34.77 31.67 27.29 34.95 35.17 35.09 34.01 31.19 32.92 25.85 25.88 21.76 20.08 23.20 25.93 27.17 31.36 33.49 33.93 33.03 32.74 32.66 32.45
50.63 46.97 53.33 51.41 50.31 45.05 37.87 36.09 38.60 41.38 41.81 38.75 35.95 35.81 34.96 34.01 34.57 34.52 34.74 35.26 36.53 36.12 34.65 32.82 30.94 32.39 33.97 31.18 30.47 30.45 28.99 28.79 28.43 25.94 21.01 18.84 24.61 33.65 33.77 35.02 35.12 35.63 35.36 33.75 32.62
49.65 44.66 53.65 51.97 44.87 40.87 38.39 39.48 41.20 40.27 40.93 39.83 37.94 37.70 34.81 35.44 34.53 35.20 35.10 36.26 38.41 37.35 33.22 33.50 32.51 27.90 32.10 32.00 32.78 31.69 29.96 29.40 24.02 24.31 24.50 23.39 25.56 37.26 35.78 36.26 36.80 36.62 36.53 35.30 34.22
46.83 46.77 52.52 50.54 40.97 38.78 39.46 40.26 40.98 39.55 39.79 39.66 39.02 38.82 37.40 35.08 33.71 36.71 37.07 38.83 39.18 37.23 34.47 35.33 31.80 27.43 29.67 29.04 32.08 29.38 30.65 30.94 31.03 30.50 24.90 22.81 25.89 35.82 35.59 34.57 34.68 33.98 34.22 34.43 34.72
46.35 42.89 47.31 45.01 43.05 41.15 40.15 40.44 39.71 40.23 39.78 40.23 38.87 38.19 36.18 35.04 37.60 35.56 36.78 39.10 38.72 38.27 42.27 40.29 32.87 32.77 28.65 30.74 34.97 31.51 32.91 32.99 33.32 28.30 27.14 27.04 29.54 35.38 37.85 35.10 34.11 33.85 33.63 33.80 33.73
46.74 44.07 43.14 40.88 41.90 40.29 41.22 41.24 39.82 38.52 39.00 39.70 37.65 38.03 36.51 33.97 35.83 35.30 37.91 38.14 38.23 40.45 36.29 36.48 29.57 31.30 35.19 36.68 36.02 34.71 33.35 33.69 30.48 31.90 28.93 31.40 31.12 35.43 37.07 32.02 32.32 32.25 32.90 32.33 32.41
45.18 42.28 42.38 41.76 41.79 40.23 40.42 40.10 40.43 40.83 40.08 38.74 37.33 40.03 37.93 35.38 37.66 36.16 36.83 36.75 36.96 34.22 34.12 36.16 31.37 29.34 29.13 34.42 34.58 32.07 33.53 33.55 33.13 33.47 33.56 33.63 32.42 36.71 31.80 33.16 34.58 32.84 30.37 29.91 29.74
47.20 45.09 45.35 42.60 39.82 39.19 40.29 41.17 41.93 42.54 43.10 43.42 40.69 39.31 38.56 39.57 39.97 40.02 40.40 40.43 40.19 37.35 34.87 32.21 31.25 29.64 29.13 32.73 32.11 28.66 32.41 32.16 31.93 33.23 33.47 29.16 31.36 32.84 33.00 34.34 33.94 28.63 27.74 26.68 27.90
MSLP
1020.16 1019.74 1019.36 1019.04 1018.65 1018.40 1018.21 1018.01 1017.87 1017.75 1017.56 1017.41 1017.33 1017.24 1017.08 1016.82 1016.34 1016.19 1016.91 1017.46 1016.85 1016.09 1015.72 1015.23 1014.67 1014.66 1014.56 1014.95 1015.13 1015.58 1017.02 1018.23 1018.46 1018.39 1018.81 1018.60 1018.97 1019.24 1019.51 1020.27 1020.78 1021.53 1022.28 1022.65 1022.58
1020.20 1019.83 1019.43 1019.10 1018.82 1018.50 1018.24 1018.05 1017.85 1017.71 1017.53 1017.40 1017.27 1017.18 1017.04 1017.05 1016.66 1016.96 1017.38 1016.85 1016.37 1015.93 1015.71 1015.56 1015.12 1014.92 1015.01 1015.38 1015.77 1016.36 1017.82 1018.39 1018.72 1018.65 1018.95 1019.02 1019.25 1019.66 1020.04 1020.68 1021.43 1021.85 1022.28 1022.62 1022.78
1020.56 1020.14 1019.72 1019.30 1018.98 1018.65 1018.34 1018.06 1017.82 1017.62 1017.48 1017.41 1017.29 1017.16 1017.02 1016.90 1016.93 1017.64 1017.07 1016.57 1016.12 1015.80 1015.82 1015.56 1015.29 1015.40 1015.67 1015.95 1016.40 1016.97 1018.01 1018.30 1018.74 1018.64 1018.78 1019.04 1019.49 1019.71 1020.31 1021.18 1021.60 1022.00 1022.55 1022.93 1023.18
1020.84 1020.37 1019.99 1019.56 1019.10 1018.71 1018.39 1018.11 1017.91 1017.77 1017.65 1017.51 1017.38 1017.24 1017.02 1016.94 1017.95 1017.69 1017.02 1016.63 1016.08 1015.73 1015.56 1015.46 1015.46 1015.78 1016.25 1016.81 1016.87 1017.80 1018.15 1018.33 1018.72 1018.75 1018.75 1018.97 1019.33 1019.86 1020.29 1020.98 1021.44 1022.03 1022.69 1023.17 1023.56
1021.01 1020.58 1020.12 1019.73 1019.22 1018.78 1018.45 1018.19 1018.03 1017.92 1017.78 1017.64 1017.48 1017.29 1017.08 1017.55 1018.19 1017.47 1017.14 1016.81 1016.31 1016.17 1016.27 1016.29 1016.46 1016.51 1016.97 1017.28 1017.50 1018.02 1018.46 1018.59 1018.85 1018.98 1019.13 1019.36 1019.58 1019.89 1020.23 1020.67 1021.21 1022.06 1022.70 1023.32 1023.76
1021.12 1020.70 1020.33 1019.87 1019.31 1018.89 1018.56 1018.31 1018.15 1018.03 1017.88 1017.74 1017.59 1017.54 1017.36 1018.04 1017.88 1017.42 1017.26 1017.07 1016.91 1016.75 1016.84 1016.71 1016.96 1016.92 1017.16 1017.52 1017.84 1018.07 1018.20 1018.64 1018.92 1019.37 1019.41 1019.71 1020.01 1020.35 1020.53 1020.86 1021.30 1021.93 1022.66 1023.41 1023.93
1021.34 1020.93 1020.40 1019.92 1019.45 1019.01 1018.69 1018.41 1018.23 1018.11 1017.99 1017.90 1017.75 1017.58 1017.80 1018.33 1017.79 1017.60 1017.25 1017.13 1016.99 1017.03 1017.04 1017.03 1017.16 1017.07 1017.56 1017.96 1017.95 1018.13 1018.61 1018.91 1019.02 1019.30 1019.49 1019.62 1020.09 1020.03 1020.33 1020.89 1021.49 1022.04 1022.71 1023.39 1023.89
1021.31 1020.87 1020.55 1020.13 1019.53 1019.08 1018.76 1018.45 1018.28 1018.17 1018.03 1017.96 1017.86 1017.71 1018.19 1017.84 1017.79 1017.57 1017.36 1017.16 1017.02 1016.99 1017.13 1017.18 1017.23 1017.56 1017.91 1018.13 1018.34 1018.66 1019.01 1019.39 1018.84 1018.96 1019.39 1019.95 1020.17 1020.44 1020.54 1020.90 1021.52 1022.10 1022.73 1023.41 1023.95
1021.46 1021.00 1020.54 1020.07 1019.50 1019.08 1018.72 1018.44 1018.24 1018.17 1018.07 1017.95 1017.89 1017.81 1018.34 1017.89 1017.89 1017.72 1017.57 1017.51 1017.22 1017.07 1017.10 1017.15 1017.32 1018.04 1018.41 1018.92 1019.34 1019.68 1019.91 1019.70 1019.16 1018.99 1019.70 1020.22 1020.18 1020.21 1020.51 1020.95 1021.62 1022.21 1022.90 1023.40 1024.02
1021.55 1021.03 1020.52 1019.96 1019.41 1018.97 1018.54 1018.36 1018.11 1018.01 1017.86 1017.78 1017.88 1018.51 1018.46 1018.56 1018.13 1017.88 1017.55 1017.49 1017.53 1017.40 1017.42 1017.52 1018.03 1018.99 1019.68 1019.84 1020.87 1020.76 1020.49 1019.91 1019.79 1019.40 1019.65 1020.09 1019.87 1020.11 1020.29 1020.79 1021.45 1022.29 1023.00 1023.59 1024.09
1021.67 1021.02 1020.45 1019.94 1019.32 1018.98 1018.40 1018.29 1018.87 1018.98 1018.82 1019.23 1019.17 1018.89 1018.88 1018.62 1018.17 1018.09 1017.77 1017.65 1017.65 1017.86 1018.33 1018.35 1019.49 1020.39 1020.58 1020.55 1020.62 1020.78 1020.79 1020.65 1019.91 1019.68 1019.79 1019.77 1019.58 1019.26 1019.57 1020.63 1021.46 1022.23 1022.96 1023.59 1024.02
1021.51 1020.92 1020.45 1020.05 1019.48 1018.84 1018.87 1019.96 1020.63 1020.82 1020.37 1019.49 1019.20 1019.10 1018.94 1018.95 1018.72 1018.34 1018.03 1018.19 1018.29 1018.72 1018.74 1019.30 1020.15 1020.23 1020.14 1020.22 1020.52 1020.46 1020.58 1020.73 1020.05 1019.71 1020.09 1019.42 1019.18 1019.34 1019.84 1020.63 1021.58 1022.30 1022.87 1023.43 1024.03
1021.58 1020.88 1020.35 1019.93 1019.51 1019.39 1020.23 1021.01 1021.05 1020.99 1020.59 1019.95 1019.43 1019.18 1019.12 1019.12 1019.13 1019.05 1018.95 1018.92 1019.01 1019.28 1019.65 1019.86 1020.22 1020.03 1020.12 1020.34 1020.52 1020.62 1020.71 1020.96 1020.98 1020.37 1019.71 1019.81 1019.61 1019.36 1020.21 1020.84 1021.51 1022.41 1022.98 1023.38 1023.84
1021.73 1021.02 1020.34 1019.74 1019.75 1020.10 1020.92 1021.14 1021.03 1021.15 1020.92 1020.53 1019.57 1019.24 1019.12 1019.02 1019.33 1019.17 1019.21 1019.51 1019.36 1019.90 1019.96 1020.17 1020.09 1020.16 1020.26 1020.55 1020.87 1020.69 1020.51 1020.88 1021.06 1021.32 1021.17 1020.63 1020.70 1019.87 1020.09 1020.72 1021.39 1021.94 1022.75 1023.43 1023.81
1021.84 1021.21 1020.61 1020.00 1020.48 1020.85 1021.45 1021.09 1021.06 1021.10 1021.25 1020.66 1019.60 1018.92 1018.87 1019.36 1019.70 1019.25 1019.30 1019.30 1019.92 1020.21 1020.47 1020.52 1020.41 1020.45 1020.57 1020.69 1020.90 1020.75 1020.40 1020.77 1021.12 1021.69 1021.81 1021.22 1021.50 1020.02 1020.01 1020.21 1020.63 1021.34 1022.25 1023.13 1023.73
1021.91 1021.40 1020.92 1020.49 1020.86 1021.19 1021.06 1021.07 1021.16 1021.21 1021.15 1020.58 1019.88 1019.64 1019.54 1019.64 1019.75 1019.60 1019.56 1019.65 1020.03 1020.41 1020.55 1020.70 1020.65 1020.62 1020.62 1020.48 1020.59 1020.71 1020.64 1020.78 1021.26 1022.11 1022.38 1021.48 1021.65 1020.00 1019.74 1019.54 1019.88 1020.59 1021.82 1022.71 1023.29
1021.80 1021.47 1021.25 1020.85 1021.16 1020.99 1021.06 1021.27 1021.48 1021.34 1021.25 1021.06 1020.65 1020.42 1020.44 1020.39 1020.10 1020.04 1020.56 1021.02 1021.56 1021.77 1021.87 1021.33 1021.04 1020.86 1020.80 1020.91 1020.76 1021.30 1021.75 1022.16 1022.63 1022.69 1022.37 1021.60 1021.48 1019.42 1018.84 1019.07 1019.57 1020.42 1021.47 1022.27 1022.92
1021.57 1021.24 1020.91 1020.85 1020.92 1020.96 1021.24 1021.41 1021.49 1021.78 1021.53 1021.22 1020.97 1020.79 1020.92 1020.85 1020.73 1020.68 1021.09 1022.01 1022.16 1022.52 1022.76 1022.67 1021.36 1021.26 1021.18 1021.46 1021.76 1022.01 1022.57 1023.58 1024.02 1023.77 1023.05 1021.82 1021.12 1019.38 1019.19 1019.40 1019.55 1019.96 1020.91 1022.14 1022.85
1021.29 1021.11 1021.04 1020.92 1020.77 1021.01 1021.21 1021.86 1022.20 1022.04 1021.89 1021.73 1021.40 1021.45 1021.43 1021.27 1021.37 1021.21 1021.61 1022.23 1022.56 1022.66 1023.09 1023.07 1022.16 1021.47 1021.41 1021.54 1022.04 1022.22 1022.76 1023.40 1024.05 1024.06 1023.74 1021.78 1020.08 1019.20 1019.12 1019.27 1019.69 1020.15 1020.76 1021.67 1022.54
1022.29 1021.73 1021.02 1020.67 1020.67 1021.04 1021.41 1022.30 1022.43 1022.20 1022.09 1022.03 1021.99 1021.88 1021.94 1021.76 1021.66 1021.61 1021.60 1021.97 1022.38 1022.74 1023.00 1023.47 1023.21 1021.90 1021.80 1021.88 1022.07 1022.32 1022.94 1023.46 1024.24 1024.52 1023.92 1022.03 1020.38 1019.00 1018.82 1018.89 1019.44 1020.14 1020.78 1021.35 1021.79
1022.27 1022.00 1020.72 1020.58 1020.85 1021.06 1022.28 1022.51 1022.39 1022.28 1022.17 1022.30 1022.26 1022.11 1022.02 1021.94 1021.88 1021.87 1021.77 1022.11 1022.22 1022.73 1023.05 1023.41 1023.86 1022.74 1022.33 1022.39 1022.41 1022.79 1022.87 1023.46 1024.06 1024.33 1024.22 1022.84 1020.31 1018.24 1018.12 1018.40 1019.00 1019.54 1019.89 1020.31 1021.03
1022.63 1022.01 1020.53 1020.70 1021.28 1021.71 1022.42 1022.21 1022.26 1022.20 1022.22 1022.25 1022.27 1022.30 1022.32 1022.31 1022.28 1022.02 1022.01 1021.92 1022.12 1022.64 1023.26 1023.68 1024.05 1023.93 1023.02 1022.53 1022.31 1022.38 1022.70 1023.18 1024.06 1023.94 1023.68 1022.94 1019.53 1017.84 1017.83 1018.04 1018.54 1019.07 1019.62 1020.23 1020.63
1023.59 1022.15 1020.62 1020.57 1021.77 1022.47 1022.37 1022.26 1022.21 1022.39 1022.40 1022.50 1022.47 1022.50 1022.61 1022.74 1022.77 1022.19 1022.10 1022.24 1022.30 1022.76 1023.27 1023.86 1024.27 1024.22 1022.92 1022.99 1022.54 1022.64 1022.93 1023.15 1023.33 1023.41 1022.84 1022.73 1019.39 1017.88 1017.92 1018.58 1019.04 1019.52 1019.85 1020.21 1020.57
1024.05 1023.15 1021.74 1021.59 1021.92 1022.05 1022.21 1022.28 1022.40 1022.38 1022.31 1022.33 1022.57 1022.64 1022.83 1022.79 1022.63 1022.49 1022.38 1022.52 1022.64 1022.87 1023.26 1023.89 1024.57 1024.65 1024.11 1023.33 1023.10 1022.96 1022.82 1022.95 1023.21 1022.96 1022.13 1020.87 1019.07 1018.58 1018.46 1019.29 1019.69 1020.15 1020.43 1020.62 1020.68
1024.06 1023.48 1023.02 1022.91 1022.48 1022.17 1022.11 1022.10 1022.18 1022.31 1022.40 1022.34 1022.51 1022.49 1022.69 1022.88 1022.71 1022.65 1022.49 1022.61 1022.90 1023.11 1023.63 1024.15 1024.41 1024.35 1023.73 1023.12 1022.78 1022.21 1021.47 1021.49 1022.12 1021.76 1021.77 1019.08 1019.76 1018.39 1019.12 1019.81 1020.56 1020.79 1021.03 1021.16 1021.00
1024.16 1023.72 1023.48 1023.09 1022.59 1022.23 1022.13 1021.95 1021.83 1021.77 1022.07 1022.31 1022.45 1022.11 1022.44 1022.67 1022.35 1022.60 1022.72 1022.91 1023.04 1023.61 1023.93 1024.17 1024.18 1024.13 1023.58 1022.94 1022.22 1021.36 1020.37 1019.92 1020.26 1020.31 1020.24 1019.47 1019.12 1019.30 1020.22 1020.67 1021.11 1021.47 1021.62 1021.83 1021.73
1023.65 1023.50 1023.52 1023.09 1022.89 1022.77 1022.16 1021.42 1021.30 1021.42 1021.36 1021.34 1021.70 1022.04 1022.01 1021.73 1021.91 1022.20 1022.52 1022.74 1022.68 1023.10 1023.85 1024.16 1024.30 1024.33 1022.85 1022.66 1022.21 1020.51 1018.60 1018.72 1018.88 1019.05 1018.99 1019.56 1020.02 1020.48 1020.87 1021.43 1021.90 1022.27 1022.48 1022.77 1023.00
Wind_Speed
21 20 19 16 16 15 12 8 6 5 4 4 5 6 7 10 9 7 9 6 8 16 15 8 3 6 3 4 3 4 6 4 4 5 3 2 3 3 2 7 6 5 4 2 7
21 22 21 18 16 16 12 9 7 5 4 3 3 5 6 7 1 9 5 9 11 12 7 8 8 8 3 3 5 6 5 3 3 4 3 4 6 2 2 5 4 3 4 7 8
20 20 21 19 18 16 12 8 6 5 3 3 3 5 7 5 5 5 10 12 14 10 5 3 6 2 6 4 5 4 3 4 4 5 5 4 2 2 2 1 2 2 4 6 8
20 20 21 20 18 16 10 7 6 5 4 3 4 5 6 2 3 4 11 12 13 10 6 6 6 3 4 6 4 6 7 5 4 2 1 3 7 3 3 5 6 5 6 6 6
20 20 21 20 18 14 8 6 6 5 4 4 5 7 1 7 2 6 7 10 7 7 8 5 7 3 4 3 4 5 2 4 5 3 2 2 3 4 6 8 7 9 8 6 5
21 21 20 19 18 14 8 6 5 4 4 5 7 7 2 6 4 7 6 5 6 5 7 7 3 2 3 3 4 2 4 5 4 3 2 2 1 0 3 7 7 8 7 6 6
20 20 21 20 18 14 9 6 5 5 6 6 8 3 9 2 4 7 7 1 2 3 3 3 4 6 2 2 2 2 0 1 4 5 1 2 4 8 7 7 7 7 7 7 6
18 18 19 19 18 15 10 7 6 7 8 7 7 2 3 2 3 4 6 1 5 2 1 4 5 3 4 0 2 1 2 2 3 8 3 4 8 6 9 9 8 7 6 6 4
20 19 19 19 17 13 10 8 7 8 7 7 2 3 2 2 3 5 1 2 6 2 1 2 2 3 6 2 4 7 3 5 4 8 3 4 7 7 8 7 7 6 6 5 4
18 18 18 18 16 13 11 4 5 7 1 2 2 5 5 5 5 6 3 3 3 4 5 3 6 5 6 8 1 5 4 5 5 3 3 5 11 7 9 7 8 6 6 5 5
19 18 19 18 17 12 6 3 5 7 10 4 1 3 2 7 3 6 4 4 1 3 4 3 9 4 4 2 3 5 4 5 5 2 5 5 9 12 6 7 7 6 6 5 5
19 19 19 16 15 15 3 6 1 1 5 2 1 1 1 2 4 8 8 4 6 4 5 7 3 2 4 4 3 5 4 4 7 6 6 6 12 6 6 3 5 7 6 6 5
19 19 19 16 12 5 6 3 2 3 4 2 2 2 3 4 2 7 6 4 4 5 6 5 2 3 2 4 6 4 2 3 6 7 4 6 5 1 1 4 4 4 4 5 6
18 20 19 20 5 1 4 4 2 1 5 7 2 3 2 1 1 2 1 1 4 3 3 3 1 3 4 1 3 5 3 1 5 5 3 5 6 4 4 5 6 7 7 7 6
17 19 19 10 1 4 3 3 2 2 5 4 4 1 4 5 3 4 1 3 2 4 4 4 2 3 3 2 1 8 8 7 4 1 3 5 3 7 3 5 7 9 8 8 7
16 18 17 4 3 0 2 2 3 7 3 4 2 6 3 4 2 5 5 4 1 2 1 2 1 1 2 5 4 7 7 5 4 3 2 3 5 7 4 5 1 2 7 9 9
17 15 9 2 1 2 2 3 6 7 2 3 3 4 4 4 4 4 4 7 5 7 7 6 1 1 1 5 5 8 6 5 6 4 5 4 2 10 4 2 2 5 8 9 8
20 11 3 1 1 2 2 5 6 2 2 2 2 4 1 3 2 4 3 3 6 4 1 3 8 1 2 1 2 3 4 4 5 3 6 3 6 6 3 3 3 3 8 7 7
17 1 1 2 2 2 5 7 3 1 1 3 5 3 2 2 1 5 2 2 1 3 3 5 6 1 0 0 2 3 4 2 1 3 1 4 7 1 1 3 3 3 7 9 7
3 4 2 2 3 3 7 3 3 2 2 1 3 1 3 5 3 5 2 2 3 1 3 1 6 3 1 1 1 1 2 3 3 4 6 6 7 5 2 4 5 6 8 8 8
2 4 3 4 2 6 4 3 3 2 1 2 1 1 2 2 2 3 2 1 2 2 1 0 2 7 2 3 4 1 0 1 2 5 4 4 7 6 4 2 4 7 9 9 9
2 2 2 2 4 2 3 1 2 3 1 1 1 1 1 3 3 2 2 1 4 3 1 2 2 5 8 3 2 1 3 4 4 5 4 3 9 6 7 5 1 6 6 6 7
3 3 2 4 3 0 2 2 1 2 2 2 2 1 1 2 3 4 1 3 5 4 3 3 2 5 6 1 2 2 2 4 3 2 9 4 8 2 5 8 6 6 7 7 8
2 3 5 5 1 5 4 3 3 1 2 3 2 1 1 3 5 4 2 4 7 6 7 5 3 7 7 8 4 7 5 7 7 6 6 15 17 17 16 6 4 6 6 7 8
1 3 3 2 3 2 2 5 5 5 3 5 3 7 7 3 3 6 4 2 3 3 5 5 7 7 13 14 11 17 21 17 13 17 13 22 15 21 11 2 5 2 3 6 6
1 1 3 3 1 3 3 5 8 3 8 5 5 5 7 7 9 5 1 4 7 2 6 4 5 2 5 12 15 16 21 19 17 18 20 22 24 9 6 4 6 6 5 6 8
2 2 4 2 1 4 5 6 8 5 6 4 8 4 6 10 4 4 5 5 7 8 7 6 4 1 8 2 5 14 14 7 5 6 6 8 2 3 3 4 5 4 5 6 7
Wind_Direction
12 9 10 8 6 5 3 1 2 3 356 340 336 340 345 346 319 44 38 292 310 312 316 287 45 317 19 3 2 43 53 40 22 50 147 70 95 20 102 106 57 71 77 14 19
8 6 6 3 3 1 0 2 1 359 3 357 340 343 345 354 137 52 269 314 313 314 341 6 338 356 27 32 14 68 78 59 37 46 98 68 89 44 60 125 72 69 44 45 31
4 2 2 1 358 360 1 7 4 5 16 31 3 349 350 336 62 350 323 332 321 319 282 277 272 295 43 60 4 35 101 127 27 59 69 112 93 97 63 74 163 126 63 49 35
2 0 360 359 357 359 3 14 29 39 36 40 15 360 333 354 72 318 354 340 334 330 357 357 16 23 78 53 354 85 44 96 152 51 55 136 157 149 140 175 142 107 101 66 39
1 360 359 360 359 3 11 23 40 47 32 24 6 355 4 44 45 312 351 352 351 4 27 13 38 16 60 45 40 82 118 93 134 139 123 117 229 177 186 156 146 108 88 76 53
0 358 357 358 358 4 7 28 31 26 9 360 352 331 51 72 271 325 326 3 5 23 22 28 5 296 87 60 79 314 162 155 164 184 197 237 249 34 146 154 166 121 119 94 69
358 357 355 357 353 357 356 2 1 348 339 348 352 2 64 148 310 321 4 259 22 21 26 358 356 61 359 78 300 144 139 253 209 199 228 115 278 236 154 167 167 141 131 116 113
352 355 354 352 347 348 343 331 330 329 321 331 339 36 84 269 310 358 346 74 347 36 37 318 10 31 56 339 323 252 88 345 252 178 205 116 278 324 162 164 186 150 136 127 117
354 352 353 350 339 338 336 315 305 320 305 306 360 73 16 297 359 307 5 315 300 264 296 311 36 87 6 45 23 17 308 323 323 191 142 175 259 200 200 189 184 160 140 129 105
348 347 343 340 336 335 322 279 301 332 269 276 307 48 10 312 300 320 286 286 302 331 -0 15 46 59 18 38 24 308 337 306 298 243 195 245 260 239 219 183 193 165 151 119 97
347 345 343 341 332 335 353 9 26 359 34 91 285 129 314 298 292 348 329 332 263 18 34 358 61 35 336 319 242 275 270 292 297 236 314 245 265 269 190 178 175 168 150 140 115
345 343 342 339 331 333 87 72 83 163 80 339 324 105 261 8 343 335 3 51 34 29 9 28 70 294 290 313 280 315 288 332 296 318 314 281 284 316 141 148 173 181 170 151 111
345 341 341 335 320 35 81 72 329 2 99 353 332 17 301 16 39 317 28 328 42 32 17 124 242 308 306 17 6 333 110 302 261 321 304 320 331 121 96 87 116 152 162 149 154
344 340 337 331 51 89 50 334 333 21 80 328 3 337 325 173 25 286 7 85 19 35 3 98 255 344 332 90 49 311 196 303 299 32 302 72 286 306 177 205 217 201 192 183 160
339 340 337 7 241 50 296 330 334 57 54 322 324 247 310 75 287 338 350 44 74 312 59 277 348 2 338 292 71 250 306 283 220 213 9 317 61 272 126 266 253 218 204 190 184
336 335 333 28 48 241 316 353 64 47 286 333 355 356 25 29 359 322 12 32 34 341 221 285 13 150 242 286 220 294 317 5 79 94 10 238 116 280 211 201 285 181 185 182 184
330 330 330 300 296 287 34 56 41 88 247 336 331 352 349 331 328 349 71 21 41 20 3 335 266 266 294 328 358 14 20 349 1 8 238 220 28 246 225 162 147 190 189 189 188
327 320 268 153 300 74 76 56 75 194 55 248 255 313 320 3 304 328 69 36 8 34 347 9 332 246 346 107 277 313 107 121 300 298 285 281 244 266 45 55 13 345 182 181 187
325 9 281 235 174 87 81 56 178 59 292 358 328 341 294 299 324 9 70 141 197 28 77 7 282 21 353 31 90 330 53 181 264 290 354 258 282 307 303 285 276 228 170 203 200
358 335 267 175 126 72 71 142 143 50 357 347 44 44 338 320 28 17 211 231 184 91 112 332 298 264 182 88 29 109 220 31 21 322 295 292 289 237 273 268 237 251 239 231 217
38 21 254 120 73 50 106 166 130 110 85 76 348 302 317 308 281 273 245 227 162 214 4 318 141 292 24 203 196 28 15 191 191 163 232 295 267 214 202 163 231 256 240 234 225
6 0 250 109 50 67 116 114 228 166 170 177 188 268 298 319 296 279 253 204 148 127 248 206 180 269 249 324 332 148 166 149 139 273 247 219 266 283 172 132 56 296 319 295 254
345 266 322 84 130 18 223 129 141 137 198 187 235 172 60 274 302 233 302 189 157 154 183 186 269 310 313 5 351 78 220 220 233 207 224 221 258 185 123 60 28 54 21 7 349
6 340 323 42 150 137 166 192 173 197 209 161 189 113 193 248 223 278 236 207 196 194 159 127 220 194 248 255 276 288 250 233 243 241 267 232 273 282 293 342 29 34 14 347 332
140 253 202 283 306 117 136 170 179 203 227 194 213 207 181 243 267 227 235 211 215 206 170 175 223 222 247 266 271 267 276 268 234 242 245 273 265 273 302 96 65 38 334 330 331
241 95 358 274 266 176 176 219 204 192 155 234 209 179 202 211 200 231 256 192 226 184 167 194 263 289 251 254 249 266 266 261 248 251 248 256 268 321 59 46 355 351 3 350 346
302 337 108 271 220 121 226 220 211 163 232 200 197 189 233 235 221 221 217 224 229 180 197 173 197 218 268 39 301 277 249 228 211 205 212 223 166 19 350 323 311 341 16 354 331